Home > Weather > Yverdon-les-Bains > Past weeks

Flag for Switzerland Past Weather in Yverdon-les-Bains, Vaud, Switzerland — Yesterday and Last 2 Weeks

Now
74 °F

Partly sunny.


Feels Like: 76 °F
Forecast: 62 / 76 °F
Wind: 6 mph from Northeast

Location: Payerne

Current Time: Jul 26, 2016 at 12:26:45 PM

Latest Report: Jul 26, 2016 at 11:00 AM


Visibility: 13 mi

Pressure: 30.09 "Hg

Humidity: 69%

Dew Point: 63 °F

Location of Yverdon-les-BainsLocation

Past Weather in Yverdon-les-Bains — Graph

°F

Yverdon-les-Bains Temperature Yesterday

Maximum temperature yesterday: 81 °F (at 6:00 PM)
Minimum temperature yesterday: 61 °F (at 5:00 AM)
Average temperature yesterday: 70 °F

High & Low Weather Summary for the Past Weeks

 TemperatureHumidityPressure
High92 °F (Jul 20, 5:00 PM)97% (Jul 23, 1:00 AM)30.34 "Hg (Jul 23, 1:00 AM)
Low47 °F (Jul 15, 6:00 AM)28% (Jul 20, 5:00 PM)29.85 "Hg (Jul 11, 6:00 PM)
Average66 °F74%30.08 "Hg
* Reported Jul 11 11:00 AM — Jul 26 11:00 AM, Yverdon-les-Bains, Weather by CustomWeather, © 2016

Note: Actual official high and low records may vary slightly from our data, if they occured in-between our weather recording intervals... More about our weather records

Advertising

Yverdon-les-Bains Weather History for the Previous 24 Hours

Scroll right to see more
 ConditionsComfort  
Time TempWeatherWind HumidityBarometerVisibility
11:00 AM
Tue, Jul 26
74 °FPartly sunny.6 mph69%30.09 "Hg12 mi
10:00 AM71 °FMild.5 mph78%30.09 "HgN/A
9:00 AM68 °FMild.1 mph83%30.11 "HgN/A
8:00 AM65 °FPassing clouds.2 mph89%30.10 "Hg10 mi
7:00 AM62 °FCool.1 mph93%30.11 "HgN/A
6:00 AM61 °FCool.2 mph95%30.11 "HgN/A
5:00 AM63 °FMild.1 mph96%30.11 "HgN/A
4:00 AM63 °FMild.2 mph94%30.11 "HgN/A
3:00 AM65 °FMild.1 mph92%30.11 "HgN/A
2:00 AM64 °FPassing clouds.1 mph93%30.11 "Hg11 mi
1:00 AM66 °FMild.No wind88%30.11 "HgN/A
12:00 AM68 °FMild.2 mph90%30.11 "HgN/A
11:00 PM
Mon, Jul 25
69 °FOvercast.No wind88%30.10 "Hg15 mi
10:00 PM71 °FMild.No wind78%30.09 "HgN/A
9:00 PM72 °FMild.5 mph69%30.07 "HgN/A
8:00 PM74 °FOvercast.9 mph65%30.06 "Hg12 mi
7:00 PM78 °FWarm.6 mph57%30.03 "HgN/A
6:00 PM81 °FWarm.6 mph54%30.01 "HgN/A
5:00 PM79 °FWarm.5 mph52%30.02 "HgN/A
4:00 PM80 °FWarm.6 mph51%30.03 "HgN/A
3:00 PM80 °FWarm.7 mph55%30.03 "HgN/A
2:00 PM77 °FScattered clouds.6 mph58%30.05 "Hg12 mi
1:00 PM77 °FWarm.6 mph53%30.06 "HgN/A
12:00 PM75 °FMild.6 mph65%30.06 "HgN/A
Weather by CustomWeather, © 2016

See weather overviewHow to use our weather pages